Location: *
(43.9900°N, 3.4811°E)
Time: 12:03:14
(UTC+00:00)

Geosat - Pass Details

Date: 25 August 2019
Orbit: 763 x 766 km, 108.0° (Epoch: 15 September)

Event Time Altitude Azimuth Distance (km) Brightness Sun altitude
Exits shadow 21:22:23 77° 212° (SSW) 788 3.9 -26.2°
Maximum altitude 21:22:34 79° 243° (WSW) 783 3.9 -26.2°
Drops below altitude 10° 21:27:37 10° 331° (NNW) 2,310 7.5 -26.8°
Sets 21:29:55 0° 332° (NNW) 3,241 8.5 -27.0°
